THOR ABLESTAR DEB, 655

Orbit data source: Space-Track

THOR ABLESTAR DEB, 655 is space debris in LEO originally from a launch on Thu, 29 Jun 1961 UTC launched from the Air Force Eastern Test Range (AFETR). Debris objects in space refer to the collection of defunct objects orbiting the Earth. Examples of debris include non-operational satellites, rocket bodies, and fragments generated from explosions, collisions, or faulty payload assembly.

Loading next visibility...
Identifier
655, 1961-015HG
Orbit
LEO
Country
Flag of USUS
Related business
Manufacturer
Unknown
Mission
Spacecraft
Bus & Motor
Unknown
Mass
Unknown
Launch date (UTC)
1961-06-29 (65 years ago)
Launch vehicle
Unknown
Launch site
Air Force Eastern Test Range (AFETR)
Object type
Payload
Rocket body
Debris
Shape & HBR
Unknown shape, 0.1 m
Radar Cross Section
Small (<0.1 m²)

Expand to show TLE details & history
Last TLE update: 22 hours ago

TLE from 22 hours ago
0 THOR ABLESTAR DEB
1 00655U 61015HG  26124.00754016  .00000263  00000-0  67036-3 0  9993
2 00655  67.2596 333.2321 0367166 350.3384 158.8737 13.09548128 81149
Epoch: 2026-05-04T00:10Z
TLE epoch observation values (Epoch: 2026-05-04T00:10:51.469Z)
Latitude
26.90624°
Longitude
-83.6052°
Altitude
1,489.023 km
Speed
6.998 km/s
True Right ascension
09h 24m 02s
True Declination
26° 46' 50"
Sunlit
Object was in daylight at epoch
Visualization orbit readout
Latitude
Unknown
Longitude
Unknown
Altitude
Unknown
Speed
Unknown
Apparent Right ascension
Unknown
Apparent Declination
Unknown
Sunlit
N/A
Visualization observer readout
Local Sidereal Time
05:33:48
Azimuth
Unknown
Elevation
Unknown
Doppler factor
Unknown
Orbital elements
Apogee altitude
1,502.411 km
Perigee altitude
944.212 km
Semi-major axis
7,601.448 km
Eccentricity
0.03672
Inclination
67.2596°
RAAN
333.2321°
Arg. of periapsis
350.3384°
True anomaly
160.32765°
Mean anomaly
158.8737°
Eccentric anomaly
159.60676°
Mean motion
3.2749 °/min
Orbital period
109.93 mins
BSTAR
0.00067036

Documentation

Showing up to 5 results
|